sat.trackr.live / text

‹ back to catalog

STARLINK-32021

NORAD 60148 · 2024-120P

PAYLOAD ACTIVE UNKNOWN

§ Identity

Operator
Country
US
Launch date
2024-06-27
Launch site
AFETR
Launch vehicle
Mass (kg)
RCS (m²)

Purposes: comms

External: N2YO · Heavens-Above · Gunter

§ Orbital elements

Epoch: 2026-05-25T04:49:58.122624Z

Period
94.01 min
Inclination
53.1625°
Eccentricity
0.0001309
Mean motion
15.31696616 rev/d
Perigee alt
469.9 km
Apogee alt
471.6 km
Semi-major
6,848.9 km
B*
2.4366e-5
RAAN
314.3570°
Arg perigee
90.2591°
Mean anomaly
269.8561°
Rev number
10,831

§ Raw data

STARLINK-320211 60148U 24120P   26145.20136716  .00000391  00000+0  24366-4 0  99992 60148  53.1625 314.3570 0001309  90.2591 269.8561 15.31696616108319

JSON: /api/v1/satellites/60148 · /tle

For live sub-satellite position, see the globe view (requires WebGL).

§ Visibility from observer

Set your observer location to see the next 7 days of passes ≥ 10°. The values pass through the URL so the page stays shareable.

No JS? Fill the form by hand. The geolocation button needs JavaScript.